{"data":{"norad_id":67912,"intl_designator":"2026-036J","name":"STARLINK-36676","alt_names":[],"object_type":"PAYLOAD","status":"ACTIVE","operator":null,"country":"US","launch_date":"2026-02-22","launch_site_code":"AFETR","launch_vehicle":null,"mission":null,"orbit_class":"UNKNOWN","rcs_meters":null,"size_class":null,"mass_kg":null,"dimensions":null,"purposes":["comms"],"wikipedia_slug":null,"has_3d_model":false,"image_url":null,"decayed_at":null,"tle_current":{"epoch":"2026-09-19T07:22:48.569376Z","epoch_age_seconds":166297,"freshness":"FRESH","line1":"1 67912U 26036J   26262.30750659  .00005805  00000+0  22034-3 0  9996","line2":"2 67912  43.0023 231.7964 0001476 267.4357  92.6326 15.27578171 33337","mean_motion":15.27578171,"eccentricity":0.0001476,"inclination_deg":43.0023,"raan_deg":231.7964,"arg_perigee_deg":267.4357,"mean_anomaly_deg":92.6326,"bstar":0.00022034,"rev_number":3333,"period_min":94.266861581122,"perigee_km":482.04186085296,"apogee_km":484.06728460523,"semimajor_km":6861.1915727291,"source":"CELESTRAK","updated_at":"2026-09-20T09:00:43.702549Z"}}}